EW9790 Weather Reports


Display with metric or nautical units.
time (UTC)temp
F
wind
direction
speed
MPH
gust
MPH
rain 1hr
in
rain 24hr
in
rain mn
in
humidity
%
barometer
mb
20260906012454 78 261 0.0 0.0 0.00 0.00 0.00 93 1010.1
20260906011954 79 261 0.0 0.0 0.00 0.00 0.00 93 1010.1
20260906011724 79 261 0.0 0.0 0.00 0.00 0.00 92 1010.1
20260906010954 79 261 0.0 0.0 0.00 0.00 0.00 91 1009.9
20260906010453 79 261 0.0 0.0 0.00 0.00 0.00 92 1009.9
20260906005953 79 261 0.0 0.0 0.00 0.00 0.00 92 1009.8
20260906005453 80 261 0.0 0.0 0.00 0.00 0.00 92 1009.8
20260906004953 80 261 0.0 0.0 0.00 0.00 0.00 91 1009.8
20260906004452 80 261 0.0 0.0 0.00 0.00 0.00 90 1009.7
20260906003951 80 261 0.0 0.0 0.00 0.00 0.00 90 1009.7
20260906003452 81 261 0.0 0.0 0.00 0.00 0.00 90 1009.7
20260906002951 81 261 0.0 0.0 0.00 0.00 0.00 90 1009.7
20260906002450 82 261 0.0 0.0 0.00 0.00 0.00 89 1009.7
20260906002219 82 261 0.0 0.0 0.00 0.00 0.00 89 1009.8
20260906001449 82 261 0.0 0.0 0.00 0.00 0.00 88 1009.8
20260906000950 83 261 0.0 0.0 0.00 0.00 0.00 88 1009.8
20260906000449 83 261 0.0 0.0 0.00 0.00 0.00 88 1009.9
20260905235950 83 261 0.0 0.0 0.00 0.00 0.00 87 1010.0
20260905235450 84 261 0.0 0.0 0.00 0.00 0.00 87 1010.0
20260905234950 84 261 0.0 0.0 0.00 0.00 0.00 86 1010.0
20260905234448 85 261 0.0 0.0 0.00 0.00 0.00 86 1010.0
20260905233948 85 261 0.0 0.0 0.00 0.00 0.00 85 1009.9
20260905233448 86 261 0.0 0.0 0.00 0.00 0.00 82 1010.0
20260905232948 87 261 0.0 0.0 0.00 0.00 0.00 81 1010.0
20260905232449 87 261 0.0 0.0 0.00 0.00 0.00 78 1010.0
20260905231949 88 261 0.0 0.0 0.00 0.00 0.00 77 1009.9
20260905231449 89 261 0.0 0.0 0.00 0.00 0.00 74 1009.9
20260905231218 91 261 0.0 1.0 0.00 0.00 0.00 73 1009.8
20260905230447 93 261 0.0 1.0 0.00 0.00 0.00 71 1009.8
20260905225949 94 261 0.0 1.0 0.00 0.00 0.00 69 1009.8
20260905225446 95 261 0.0 1.0 0.00 0.00 0.00 69 1009.9
20260905224947 96 261 0.0 1.0 0.00 0.00 0.00 69 1009.9
20260905224447 96 261 0.0 1.0 0.00 0.00 0.00 69 1009.9
20260905223947 96 261 0.0 1.0 0.00 0.00 0.00 67 1010.0
20260905223718 97 261 0.0 1.0 0.00 0.00 0.00 65 1009.9
20260905222947 99 261 0.0 1.0 0.00 0.00 0.00 63 1010.0
20260905222448 101 260 0.0 1.0 0.00 0.00 0.00 59 1010.0
20260905221944 101 260 0.0 1.0 0.00 0.00 0.00 60 1010.0
20260905221446 101 260 0.0 1.0 0.00 0.00 0.00 60 1010.0
20260905220946 101 260 0.0 0.0 0.00 0.00 0.00 62 1010.0
20260905220443 101 260 0.0 1.0 0.00 0.00 0.00 59 1010.1
20260905220215 101 260 0.0 1.0 0.00 0.00 0.00 56 1010.1
20260905215444 101 260 0.0 1.0 0.00 0.00 0.00 57 1010.0
20260905214940 101 260 0.0 1.0 0.00 0.00 0.00 57 1010.0
20260905214442 101 260 0.0 3.0 0.00 0.00 0.00 59 1010.1
20260905213940 101 260 0.0 3.0 0.00 0.00 0.00 47 1010.1
20260905213438 101 328 0.0 1.0 0.00 0.00 0.00 56 1010.2
20260905212936 101 328 0.0 2.0 0.00 0.00 0.00 48 1010.3
20260905212442 99 21 0.0 1.0 0.00 0.00 0.00 50 1010.3
20260905212437 100 328 0.0 2.0 0.00 0.00 0.00 49 1010.3
20260905211437 98 22 0.0 2.0 0.00 0.00 0.00 58 1010.3
20260905210937 98 17 1.0 2.0 0.00 0.00 0.00 51 1010.4
20260905210437 98 39 1.0 3.0 0.00 0.00 0.00 51 1010.3
20260905205936 98 86 1.0 3.0 0.00 0.00 0.00 50 1010.3
20260905205436 98 75 1.0 4.0 0.00 0.00 0.00 51 1010.5
20260905204936 98 87 2.0 5.0 0.00 0.00 0.00 54 1010.5
20260905204437 98 73 2.0 5.0 0.00 0.00 0.00 50 1010.5
20260905203936 99 143 1.0 5.0 0.00 0.00 0.00 50 1010.5
20260905203436 99 119 1.0 7.0 0.00 0.00 0.00 51 1010.6
20260905202936 98 239 2.0 7.0 0.00 0.00 0.00 56 1010.6
20260905202437 99 87 1.0 5.0 0.00 0.00 0.00 51 1010.7
20260905202208 99 110 1.0 5.0 0.00 0.00 0.00 55 1010.8
20260905201436 99 58 1.0 5.0 0.00 0.00 0.00 51 1010.8
20260905201209 99 253 0.0 2.0 0.00 0.00 0.00 52 1011.0
20260905200437 98 253 0.0 2.0 0.00 0.00 0.00 52 1011.1
20260905195938 98 56 1.0 2.0 0.00 0.00 0.00 51 1011.2
20260905195438 98 30 1.0 4.0 0.00 0.00 0.00 52 1011.2
20260905194938 98 1 0.0 4.0 0.00 0.00 0.00 52 1011.3
20260905194437 97 200 1.0 4.0 0.00 0.00 0.00 57 1011.4
20260905193934 96 217 1.0 6.0 0.00 0.00 0.00 58 1011.5
20260905193430 96 70 2.0 7.0 0.00 0.00 0.00 54 1011.5
20260905192931 97 43 1.0 7.0 0.00 0.00 0.00 58 1011.6
20260905192428 98 19 1.0 3.0 0.00 0.00 0.00 54 1011.6
20260905191928 99 347 1.0 5.0 0.00 0.00 0.00 53 1011.8
20260905191700 100 14 1.0 5.0 0.00 0.00 0.00 48 1011.8
20260905191157 99 210 1.0 5.0 0.00 0.00 0.00 50 1011.9
20260905190427 99 176 1.0 4.0 0.00 0.00 0.00 49 1011.9
20260905185927 99 246 1.0 4.0 0.00 0.00 0.00 48 1012.0
20260905185426 100 284 1.0 4.0 0.00 0.00 0.00 52 1012.1
20260905184926 99 291 1.0 4.0 0.00 0.00 0.00 50 1012.1
20260905184426 99 285 1.0 2.0 0.00 0.00 0.00 51 1012.2
20260905184157 99 236 1.0 4.0 0.00 0.00 0.00 50 1012.2
20260905183423 99 315 1.0 4.0 0.00 0.00 0.00 49 1012.3
20260905182923 99 241 1.0 3.0 0.00 0.00 0.00 49 1012.3
20260905182421 100 259 0.0 2.0 0.00 0.00 0.00 52 1012.4
20260905181919 99 285 1.0 3.0 0.00 0.00 0.00 52 1012.5
20260905181418 99 260 1.0 3.0 0.00 0.00 0.00 54 1012.4
20260905180919 99 231 1.0 3.0 0.00 0.00 0.00 54 1012.5
20260905180420 98 319 1.0 3.0 0.00 0.00 0.00 50 1012.5
20260905175919 98 271 1.0 4.0 0.00 0.00 0.00 53 1012.6
20260905175418 98 263 1.0 4.0 0.00 0.00 0.00 53 1012.6
20260905174918 98 257 1.0 3.0 0.00 0.00 0.00 54 1012.6
20260905174416 98 20 1.0 3.0 0.00 0.00 0.00 50 1012.8
20260905174148 98 272 1.0 3.0 0.00 0.00 0.00 51 1012.8
20260905173417 98 37 1.0 3.0 0.00 0.00 0.00 53 1012.9
20260905172914 98 324 1.0 2.0 0.00 0.00 0.00 57 1012.9
20260905172414 98 272 1.0 3.0 0.00 0.00 0.00 57 1012.9
20260905171915 97 70 1.0 3.0 0.00 0.00 0.00 56 1013.0
20260905171647 97 112 1.0 2.0 0.00 0.00 0.00 53 1013.0
20260905170914 97 36 1.0 2.0 0.00 0.00 0.00 52 1013.1
20260905170415 97 53 1.0 2.0 0.00 0.00 0.00 56 1013.2
20260905165914 97 268 1.0 3.0 0.00 0.00 0.00 56 1013.2
20260905165412 97 271 1.0 3.0 0.00 0.00 0.00 55 1013.3
20260905164912 97 309 1.0 2.0 0.00 0.00 0.00 56 1013.3
20260905164645 97 285 1.0 2.0 0.00 0.00 0.00 58 1013.4
20260905163913 96 268 1.0 3.0 0.00 0.00 0.00 55 1013.4
20260905163412 97 250 0.0 3.0 0.00 0.00 0.00 58 1013.5
20260905163143 96 193 0.0 2.0 0.00 0.00 0.00 55 1013.5
20260905162412 96 304 1.0 2.0 0.00 0.00 0.00 63 1013.6
20260905161913 96 307 1.0 2.0 0.00 0.00 0.00 61 1013.6
20260905161411 95 1 0.0 2.0 0.00 0.00 0.00 63 1013.6
20260905160910 95 2 1.0 3.0 0.00 0.00 0.00 62 1013.6
20260905160410 96 290 1.0 3.0 0.00 0.00 0.00 62 1013.7
20260905155910 95 260 0.0 2.0 0.00 0.00 0.00 61 1013.7
20260905155410 95 179 0.0 1.0 0.00 0.00 0.00 61 1013.7
20260905154911 95 148 0.0 2.0 0.00 0.00 0.00 62 1013.8
20260905154408 95 240 0.0 2.0 0.00 0.00 0.00 63 1013.8
20260905153908 95 192 0.0 3.0 0.00 0.00 0.00 63 1013.8
20260905153408 95 227 0.0 3.0 0.00 0.00 0.00 62 1013.8
20260905152909 95 255 0.0 2.0 0.00 0.00 0.00 65 1013.8
20260905152409 94 128 0.0 2.0 0.00 0.00 0.00 64 1013.8
20260905151908 94 278 0.0 2.0 0.00 0.00 0.00 64 1013.8
20260905151409 93 283 0.0 2.0 0.00 0.00 0.00 67 1013.8
20260905150908 93 280 0.0 2.0 0.00 0.00 0.00 66 1013.9
20260905150639 93 302 0.0 1.0 0.00 0.00 0.00 68 1013.9
20260905145909 92 302 0.0 1.0 0.00 0.00 0.00 72 1013.9
20260905145406 92 301 0.0 1.0 0.00 0.00 0.00 70 1013.9
20260905144907 92 300 0.0 1.0 0.00 0.00 0.00 70 1013.9
20260905144407 92 286 0.0 1.0 0.00 0.00 0.00 71 1013.8
20260905144138 91 286 0.0 1.0 0.00 0.00 0.00 71 1013.8
20260905143407 90 285 0.0 1.0 0.00 0.00 0.00 73 1013.8
20260905142906 90 286 0.0 1.0 0.00 0.00 0.00 73 1013.8
20260905142639 90 286 0.0 1.0 0.00 0.00 0.00 72 1013.8
20260905141907 90 105 0.0 1.0 0.00 0.00 0.00 73 1013.7
20260905141413 89 121 0.0 2.0 0.00 0.00 0.00 78 1013.7
20260905141408 90 121 0.0 0.0 0.00 0.00 0.00 77 1013.8
20260905140635 88 121 0.0 2.0 0.00 0.00 0.00 78 1013.8
20260905135904 87 124 0.0 2.0 0.00 0.00 0.00 82 1013.7
20260905135634 86 124 0.0 2.0 0.00 0.00 0.00 82 1013.8
20260905135135 85 288 0.0 0.0 0.00 0.00 0.00 88 1013.7
20260905134634 84 288 0.0 0.0 0.00 0.00 0.00 92 1013.8
20260905133904 83 288 0.0 0.0 0.00 0.00 0.00 95 1013.7
20260905133635 83 288 0.0 0.0 0.00 0.00 0.00 97 1013.6
20260905133135 82 288 0.0 0.0 0.00 0.00 0.00 99 1013.7
20260905132405 81 288 0.0 0.0 0.00 0.00 0.00 99 1013.7
20260905131902 80 288 0.0 0.0 0.00 0.00 0.00 99 1013.7
20260905131634 79 288 0.0 0.0 0.00 0.00 0.00 100 1013.7
20260905130902 78 288 0.0 0.0 0.00 0.00 0.00 100 1013.6
20260905130403 79 288 0.0 0.0 0.00 0.00 0.00 100 1013.6
20260905125901 79 288 0.0 0.0 0.00 0.00 0.00 100 1013.5
20260905125408 76 288 0.0 0.0 0.00 0.00 0.00 100 1013.5
20260905125401 78 288 0.0 0.0 0.00 0.00 0.00 100 1013.5
20260905124403 75 288 0.0 0.0 0.00 0.00 0.00 100 1013.5
20260905123902 74 288 0.0 0.0 0.00 0.00 0.00 100 1013.4
20260905123402 74 288 0.0 0.0 0.00 0.00 0.00 100 1013.4
20260905123133 73 288 0.0 0.0 0.00 0.00 0.00 100 1013.3
20260905122633 72 288 0.0 0.0 0.00 0.00 0.00 100 1013.2
20260905121902 72 288 0.0 0.0 0.00 0.00 0.00 100 1013.2
20260905121403 72 288 0.0 0.0 0.00 0.00 0.00 100 1013.2
20260905121135 72 288 0.0 0.0 0.00 0.00 0.00 100 1013.2
20260905120401 72 288 0.0 0.0 0.00 0.00 0.00 100 1013.2
20260905120136 72 288 0.0 0.0 0.00 0.00 0.00 100 1013.2
20260905115401 72 288 0.0 0.0 0.00 0.00 0.00 100 1013.2
20260905114902 72 288 0.0 0.0 0.00 0.00 0.00 100 1013.2
20260905114402 71 288 0.0 0.0 0.00 0.00 0.00 100 1013.1
20260905114136 71 288 0.0 0.0 0.00 0.00 0.00 100 1013.1
20260905113401 72 288 0.0 0.0 0.00 0.00 0.00 100 1013.0
20260905112902 72 288 0.0 0.0 0.00 0.00 0.00 100 1012.9
20260905112402 72 288 0.0 0.0 0.00 0.00 0.00 100 1013.0
20260905111902 72 288 0.0 0.0 0.00 0.00 0.00 100 1012.9
20260905111402 72 288 0.0 0.0 0.00 0.00 0.00 100 1012.9
20260905110902 72 288 0.0 0.0 0.00 0.00 0.00 100 1012.9
20260905110402 72 288 0.0 0.0 0.00 0.00 0.00 100 1012.9
20260905105902 72 288 0.0 0.0 0.00 0.00 0.00 100 1012.8
20260905105402 72 288 0.0 0.0 0.00 0.00 0.00 100 1012.6
20260905104903 72 288 0.0 0.0 0.00 0.00 0.00 100 1012.9
20260905104401 72 288 0.0 0.0 0.00 0.00 0.00 100 1012.8
20260905103902 72 288 0.0 0.0 0.00 0.00 0.00 100 1012.6
20260905103401 72 288 0.0 0.0 0.00 0.00 0.00 100 1012.6
20260905102903 72 288 0.0 0.0 0.00 0.00 0.00 100 1012.6
20260905102632 72 288 0.0 0.0 0.00 0.00 0.00 100 1012.9
20260905101902 72 288 0.0 0.0 0.00 0.00 0.00 100 1012.8
20260905101401 72 288 0.0 0.0 0.00 0.00 0.00 100 1012.6
20260905100902 72 288 0.0 0.0 0.00 0.00 0.00 100 1012.6
20260905100635 73 288 0.0 0.0 0.00 0.00 0.00 100 1012.6
20260905095902 73 288 0.0 0.0 0.00 0.00 0.00 100 1012.5
20260905095403 72 288 0.0 0.0 0.00 0.00 0.00 100 1012.5
20260905094903 72 288 0.0 0.0 0.00 0.00 0.00 100 1012.5
20260905094402 72 288 0.0 0.0 0.00 0.00 0.00 100 1012.5
20260905093902 73 288 0.0 0.0 0.00 0.00 0.00 100 1012.6
20260905093401 73 288 0.0 0.0 0.00 0.00 0.00 100 1012.5
20260905093133 73 288 0.0 0.0 0.00 0.00 0.00 100 1012.5
20260905092359 73 288 0.0 0.0 0.00 0.00 0.00 100 1012.5
20260905091859 73 288 0.0 0.0 0.00 0.00 0.00 100 1012.4
20260905091632 73 288 0.0 0.0 0.00 0.00 0.00 100 1012.4
20260905090900 73 288 0.0 0.0 0.00 0.00 0.00 100 1012.5
20260905090358 73 288 0.0 0.0 0.00 0.00 0.00 100 1012.5
20260905085858 73 288 0.0 0.0 0.00 0.00 0.00 100 1012.4
20260905085358 73 288 0.0 0.0 0.00 0.00 0.00 100 1012.5
20260905084859 73 288 0.0 0.0 0.00 0.00 0.00 100 1012.4
20260905084358 73 288 0.0 0.0 0.00 0.00 0.00 100 1012.4
20260905084128 73 288 0.0 0.0 0.00 0.00 0.00 100 1012.4
20260905083357 73 288 0.0 0.0 0.00 0.00 0.00 100 1012.5
20260905082857 73 288 0.0 0.0 0.00 0.00 0.00 100 1012.5
20260905082358 73 288 0.0 0.0 0.00 0.00 0.00 99 1012.5
20260905082130 73 288 0.0 0.0 0.00 0.00 0.00 99 1012.5
20260905081356 73 288 0.0 0.0 0.00 0.00 0.00 99 1012.4
20260905080855 73 288 0.0 0.0 0.00 0.00 0.00 99 1012.4
20260905080356 73 288 0.0 0.0 0.00 0.00 0.00 99 1012.5
20260905075853 73 288 0.0 0.0 0.00 0.00 0.00 100 1012.5
20260905075353 73 288 0.0 0.0 0.00 0.00 0.00 100 1012.5
20260905074853 73 288 0.0 0.0 0.00 0.00 0.00 99 1012.5
20260905074625 73 288 0.0 0.0 0.00 0.00 0.00 99 1012.5
20260905074127 73 288 0.0 0.0 0.00 0.00 0.00 99 1012.4
20260905073354 73 288 0.0 0.0 0.00 0.00 0.00 99 1012.4
20260905072852 73 288 0.0 0.0 0.00 0.00 0.00 99 1012.4
20260905072351 74 288 0.0 0.0 0.00 0.00 0.00 99 1012.4
20260905071851 74 288 0.0 0.0 0.00 0.00 0.00 99 1012.6
20260905071351 74 288 0.0 0.0 0.00 0.00 0.00 99 1012.6
20260905070851 74 288 0.0 0.0 0.00 0.00 0.00 99 1012.5
20260905070351 74 288 0.0 0.0 0.00 0.00 0.00 99 1012.5
20260905065851 74 288 0.0 0.0 0.00 0.00 0.00 99 1012.5
20260905065351 74 288 0.0 0.0 0.00 0.00 0.00 99 1012.5
20260905064852 74 288 0.0 0.0 0.00 0.00 0.00 99 1012.5
20260905064351 74 288 0.0 0.0 0.00 0.00 0.00 99 1012.6
20260905063850 74 288 0.0 0.0 0.00 0.00 0.00 99 1012.6
20260905063351 74 288 0.0 0.0 0.00 0.00 0.00 99 1012.6
20260905062850 74 288 0.0 0.0 0.00 0.00 0.00 99 1012.6
20260905062350 74 288 0.0 0.0 0.00 0.00 0.00 99 1012.8
20260905061849 74 288 0.0 0.0 0.00 0.00 0.00 99 1012.8
20260905061350 74 288 0.0 0.0 0.00 0.00 0.00 99 1012.6
20260905060854 74 288 0.0 0.0 0.00 0.00 0.00 99 1012.6
20260905060849 74 288 0.0 0.0 0.00 0.00 0.00 99 1012.6
20260905055848 74 288 0.0 0.0 0.00 0.00 0.00 99 1012.8
20260905055349 74 288 0.0 1.0 0.00 0.00 0.00 99 1012.8
20260905054848 74 288 0.0 1.0 0.00 0.00 0.00 99 1012.9
20260905054348 74 288 0.0 0.0 0.00 0.00 0.00 99 1012.8
20260905053846 74 288 0.0 0.0 0.00 0.00 0.00 99 1012.8
20260905053348 74 288 0.0 0.0 0.00 0.00 0.00 99 1012.6
20260905052847 74 288 0.0 0.0 0.00 0.00 0.00 99 1012.6
20260905052348 74 288 0.0 0.0 0.00 0.00 0.00 99 1012.6
20260905052119 75 288 0.0 0.0 0.00 0.00 0.00 99 1012.8
20260905051347 75 288 0.0 0.0 0.00 0.00 0.00 99 1012.8
20260905050846 75 288 0.0 0.0 0.00 0.00 0.00 99 1012.8
20260905050348 75 288 0.0 0.0 0.00 0.00 0.00 99 1012.9
20260905045847 75 288 0.0 0.0 0.00 0.00 0.00 99 1012.9
20260905045350 75 288 0.0 0.0 0.00 0.00 0.00 99 1013.0
20260905044848 75 288 0.0 0.0 0.00 0.00 0.00 99 1013.0
20260905044346 75 288 0.0 0.0 0.00 0.00 0.00 99 1013.1
20260905043845 75 288 0.0 0.0 0.00 0.00 0.00 99 1013.1
20260905043345 75 288 0.0 0.0 0.00 0.00 0.00 99 1013.1
20260905043118 75 288 0.0 0.0 0.00 0.00 0.00 98 1013.1
20260905042346 75 288 0.0 0.0 0.00 0.00 0.00 98 1013.1
20260905041846 75 288 0.0 0.0 0.00 0.00 0.00 98 1013.1
20260905041346 75 288 0.0 0.0 0.00 0.00 0.00 98 1013.2
20260905040845 75 288 0.0 0.0 0.00 0.00 0.00 98 1013.1
20260905040346 76 288 0.0 0.0 0.00 0.00 0.00 98 1013.2
20260905035846 76 288 0.0 0.0 0.00 0.00 0.00 98 1013.3
20260905035346 76 288 0.0 0.0 0.00 0.00 0.00 98 1013.3
20260905034850 76 288 0.0 0.0 0.00 0.00 0.00 98 1013.3
20260905034846 76 288 0.0 0.0 0.00 0.00 0.00 98 1013.3
20260905033846 76 288 0.0 0.0 0.00 0.00 0.00 98 1013.2
20260905033346 76 288 0.0 0.0 0.00 0.00 0.00 98 1013.3
20260905032843 76 288 0.0 0.0 0.00 0.00 0.00 98 1013.3
20260905032613 76 288 0.0 0.0 0.00 0.00 0.00 98 1013.3
20260905031842 76 288 0.0 0.0 0.00 0.00 0.00 98 1013.4
20260905031341 76 288 0.0 0.0 0.00 0.00 0.00 98 1013.3
20260905030841 76 288 0.0 0.0 0.00 0.00 0.00 98 1013.3
20260905030339 76 288 0.0 0.0 0.00 0.00 0.00 98 1013.3
20260905025840 76 288 0.0 0.0 0.00 0.00 0.00 98 1013.3
20260905025610 76 288 0.0 0.0 0.00 0.00 0.00 97 1013.4
20260905025110 77 288 0.0 0.0 0.00 0.00 0.00 97 1013.4
20260905024339 77 288 0.0 0.0 0.00 0.00 0.00 97 1013.3
20260905023840 77 288 0.0 0.0 0.00 0.00 0.00 97 1013.2
20260905023612 77 288 0.0 0.0 0.00 0.00 0.00 97 1013.2
20260905023110 77 288 0.0 0.0 0.00 0.00 0.00 97 1013.2
20260905022339 77 288 0.0 0.0 0.00 0.00 0.00 97 1013.2
20260905021840 77 288 0.0 0.0 0.00 0.00 0.00 97 1013.2
20260905021608 78 288 0.0 0.0 0.00 0.00 0.00 97 1013.1
20260905020839 78 288 0.0 0.0 0.00 0.00 0.00 96 1013.1
20260905020338 78 288 0.0 0.0 0.00 0.00 0.00 96 1013.1
20260905020108 78 288 0.0 0.0 0.00 0.00 0.00 96 1013.0
20260905015337 78 288 0.0 0.0 0.00 0.00 0.00 96 1013.1
20260905014843 78 288 0.0 0.0 0.00 0.00 0.00 96 1013.1
20260905014837 78 288 0.0 0.0 0.00 0.00 0.00 96 1013.0
20260905013838 78 288 0.0 0.0 0.00 0.00 0.00 96 1013.1
20260905013338 78 288 0.0 0.0 0.00 0.00 0.00 95 1013.0